This is the latest recevied weather packets stored in our database for station/object KJ4YLO. If no packets are shown the sender has not sent any weather packets the latest 10 day(s).
| Time | Temp. | Humidity | Pressure | Rain* | Wind** | Luminosity | Snow |
|---|---|---|---|---|---|---|---|
| 1777601641 | 14.44° C | 67% | 1013.5 hPa | 0 mm | - | 0 W/m² | - |
| 1777601336 | 15.56° C | 67% | 1013.8 hPa | 0 mm | - | 0 W/m² | - |
| 1777601034 | 15.56° C | 67% | 1013.5 hPa | 0 mm | - | 0 W/m² | - |
| 1777600730 | 15.56° C | 66% | 1013.5 hPa | 0 mm | - | 0 W/m² | - |
| 1777600426 | 16.11° C | 63% | 1013.5 hPa | 0 mm | - | 0 W/m² | - |
| 1777600122 | 16.11° C | 63% | 1013.1 hPa | 0 mm | - | 0 W/m² | - |
| 1777599818 | 16.11° C | 63% | 1013.1 hPa | 0 mm | - | 0 W/m² | - |
| 1777599514 | 16.67° C | 60% | 1012.8 hPa | 0 mm | - | 0 W/m² | - |
| 1777599211 | 16.67° C | 60% | 1012.8 hPa | 0 mm | - | 0 W/m² | - |
| 1777598599 | 17.78° C | 56% | 1012.8 hPa | 0 mm | - | 0 W/m² | - |
| 1777598295 | 17.78° C | 56% | 1012.4 hPa | 0 mm | - | 0 W/m² | - |
| 1777597993 | 17.78° C | 53% | 1012.4 hPa | 0 mm | - | 0 W/m² | - |
| 1777597691 | 17.78° C | 54% | 1012.4 hPa | 0 mm | - | 0 W/m² | - |
| 1777597388 | 17.78° C | 55% | 1012.8 hPa | 0 mm | - | 0 W/m² | - |
| 1777597083 | 18.33° C | 53% | 1012.4 hPa | 0 mm | - | 0 W/m² | - |
| 1777596779 | 18.33° C | 57% | 1012.4 hPa | 0 mm | - | 0 W/m² | - |
| 1777596475 | 18.33° C | 57% | 1012.4 hPa | 0 mm | - | 0 W/m² | - |
| 1777596173 | 18.33° C | 57% | 1012 hPa | 0 mm | - | 0 W/m² | - |
| 1777595870 | 18.33° C | 60% | 1012 hPa | 0 mm | - | 0 W/m² | - |
| 1777595570 | 18.89° C | 62% | 1012.4 hPa | 0 mm | - | 0 W/m² | - |
| 1777595266 | 18.89° C | 60% | 1011.7 hPa | 0 mm | - | 0 W/m² | - |
| 1777594962 | 18.89° C | 61% | 1011.7 hPa | 0 mm | - | 0 W/m² | - |
| 1777594659 | 18.89° C | 59% | 1011.7 hPa | 0 mm | - | 0 W/m² | - |
| 1777594356 | 18.89° C | 62% | 1011.7 hPa | 0 mm | - | 0 W/m² | - |
| 1777594052 | 18.33° C | 61% | 1011.3 hPa | 0 mm | - | 2 W/m² | - |
* Rain latest hour (hover to see other rain measurements)
** Current wind speed in m/s (hover to see current wind gust speed)